Location: Ferchesar
(52.6477°N, 12.4298°E)
Time: 15:01:10
(UTC+01:00)

deb Explorer IX - Pass Details

Date: 12 December 2021
Orbit: 544 x 1082 km, 38.8° (Epoch: 18 January)

Event Time Altitude Azimuth Distance (km) Brightness Sun altitude
Rises 07:47:52 0° 226° (SW) 3,515 ? -3.9°
Reaches altitude 10° 07:51:33 10° 206° (SSW) 2,456 ? -3.4°
Maximum altitude 07:54:56 16° 170° (S) 1,950 ? -3.0°
Drops below altitude 10° 07:58:05 10° 133° (SE) 2,232 ? -2.6°
Sets 08:01:12 0° 112° (ESE) 3,044 ? -2.2°
